Weather History for Franklin, NC

Change the Weather History Date:

Tuesday, June 17, 2014

  Actual Average (KTOC) Record (KTOC)
Temperature  
Mean Temperature 74 °F -  
Max Temperature 86 °F 85 °F 93 °F (2014)
Min Temperature 61 °F 64 °F 68 °F (2014)
Cooling Degree Days 8    
Growing Degree Days 24 (Base 50)    
Moisture  
Dew Point 63 °F    
Average Humidity 80    
Maximum Humidity 100    
Minimum Humidity 41    
Precipitation  
Precipitation 0.00 in - - ()
Sea Level Pressure  
Sea Level Pressure 30.25 in    
Wind  
Wind Speed 0 mph (NNE)    
Max Wind Speed 5 mph    
Max Gust Speed -    
Visibility 6 miles    
Events Fog    
Averages and records for this station are not official NWS values.
T = Trace of Precipitation, MM = Missing Value Source: NWS Daily Summary

Daily Weather History Graph

Daily Weather History Graph

Search for Another Location

Airport:

Trip Planner

Search our weather history database for the weather conditions in past years. The results will help you decide how hot, cold, wet, or windy it might be!

Date:

Astronomy

Jun. 17, 2014 Rise Set
Actual Time 6:18 AM EDT 8:50 PM EDT
Civil Twilight 5:48 AM EDT 9:20 PM EDT
Nautical Twilight 5:12 AM EDT 9:57 PM EDT
Astronomical Twilight 4:31 AM EDT 10:38 PM EDT
Moon No Moon Rise 11:22 AM EDT (6/17)
Length of Visible Light 15h 31m
Length of Day
14h 31m
Waning Gibbous, 73% of the Moon is Illuminated
Jun 17
Waning Gibbous
Jun 19
Last Quarter
Jun 27
New
Jul 5
First Quarter
Jul 12
Full

Hourly Weather History & Observations

Time (EDT) Temp. Heat Index Dew Point Humidity Pressure Visibility Wind Dir Wind Speed Gust Speed Precip Events Conditions
12:15 AM 63.5 °F - 63.5 °F 100% 30.27 in 2.0 mi Calm Calm - N/A   Mostly Cloudy
12:35 AM 62.8 °F - 62.8 °F 100% 30.27 in 4.0 mi Calm Calm - N/A   Overcast
12:55 AM 63.9 °F - 63.9 °F 100% 30.26 in 4.0 mi Calm Calm - N/A   Overcast
1:15 AM 64.4 °F - 64.4 °F 100% 30.26 in 5.0 mi Calm Calm - N/A   Overcast
1:35 AM 64.0 °F - 64.0 °F 100% 30.26 in 1.0 mi Calm Calm - N/A   Overcast
2:15 AM 64.4 °F - 64.4 °F 100% 30.26 in 0.2 mi Calm Calm - N/A Fog Fog
2:35 AM 64.4 °F - 64.4 °F 100% 30.25 in 0.2 mi Calm Calm - N/A Fog Fog
2:55 AM 64.4 °F - 64.4 °F 100% 30.25 in 0.2 mi Calm Calm - N/A Fog Fog
3:15 AM 64.4 °F - 64.4 °F 100% 30.24 in 0.5 mi Calm Calm - N/A Fog Fog
3:35 AM 63.7 °F - 63.7 °F 100% 30.24 in 1.2 mi Calm Calm - N/A   Overcast
3:55 AM 63.5 °F - 63.5 °F 100% 30.24 in 4.0 mi Calm Calm - N/A   Overcast
4:15 AM 63.5 °F - 63.0 °F 98% 30.24 in 1.2 mi Calm Calm - N/A   Overcast
4:35 AM 63.3 °F - 63.0 °F 99% 30.25 in 1.8 mi Calm Calm - N/A   Overcast
4:55 AM 63.0 °F - 62.6 °F 99% 30.25 in 3.0 mi Calm Calm - N/A   Overcast
5:15 AM 62.8 °F - 62.2 °F 98% 30.25 in 0.8 mi Calm Calm - N/A   Overcast
5:35 AM 62.6 °F - 62.1 °F 98% 30.26 in 1.8 mi Calm Calm - N/A   Overcast
5:55 AM 62.2 °F - 61.7 °F 98% 30.26 in 2.0 mi Calm Calm - N/A   Overcast
6:15 AM 61.7 °F - 61.2 °F 98% 30.27 in 2.0 mi Calm Calm - N/A   Overcast
6:35 AM 61.7 °F - 61.0 °F 97% 30.28 in 1.8 mi Calm Calm - N/A   Overcast
6:55 AM 61.7 °F - 61.0 °F 97% 30.29 in 1.0 mi Calm Calm - N/A   Overcast
7:15 AM 61.7 °F - 61.0 °F 97% 30.29 in 1.0 mi Calm Calm - N/A   Overcast
7:35 AM 61.7 °F - 61.2 °F 98% 30.30 in 1.0 mi Calm Calm - N/A   Overcast
7:55 AM 61.9 °F - 61.3 °F 98% 30.30 in 1.2 mi Calm Calm - N/A   Overcast
8:35 AM 62.4 °F - 61.7 °F 97% 30.31 in 3.0 mi Calm Calm - N/A   Overcast
8:55 AM 62.6 °F - 62.1 °F 98% 30.32 in 4.0 mi Calm Calm - N/A   Overcast
9:15 AM 62.6 °F - 61.9 °F 97% 30.33 in 5.0 mi Calm Calm - N/A   Overcast
9:35 AM 63.0 °F - 62.6 °F 99% 30.32 in 5.0 mi Calm Calm - N/A   Overcast
9:55 AM 63.5 °F - 63.0 °F 98% 30.32 in 7.0 mi Calm Calm - N/A   Overcast
10:15 AM 63.9 °F - 63.7 °F 99% 30.32 in 10.0 mi Calm Calm - N/A   Overcast
10:35 AM 65.1 °F - 65.1 °F 100% 30.31 in 10.0 mi Calm Calm - N/A   Overcast
10:55 AM 68.0 °F - 66.9 °F 96% 30.31 in 10.0 mi Calm Calm - N/A   Mostly Cloudy
11:15 AM 69.4 °F - 64.9 °F 86% 30.30 in 10.0 mi Calm Calm - N/A   Scattered Clouds
11:35 AM 71.6 °F - 63.3 °F 75% 30.30 in 10.0 mi Calm Calm - N/A   Clear
11:55 AM 74.3 °F - 63.1 °F 68% 30.30 in 10.0 mi Calm Calm - N/A   Clear
12:15 PM 75.6 °F - 62.1 °F 63% 30.29 in 10.0 mi Calm Calm - N/A   Clear
12:35 PM 77.7 °F - 61.0 °F 56% 30.29 in 10.0 mi NW 4.6 mph - N/A   Clear
12:55 PM 80.1 °F 80.9 °F 59.9 °F 50% 30.28 in 10.0 mi Calm Calm - N/A   Clear
1:15 PM 80.4 °F 81.1 °F 59.9 °F 49% 30.28 in 10.0 mi SSW 3.5 mph - N/A   Clear
1:35 PM 81.1 °F 81.5 °F 59.0 °F 47% 30.27 in 10.0 mi Calm Calm - N/A   Clear
2:15 PM 83.8 °F 84.3 °F 61.3 °F 47% 30.25 in 10.0 mi ENE 4.6 mph - N/A   Mostly Cloudy
2:35 PM 83.8 °F 83.8 °F 59.5 °F 44% 30.24 in 10.0 mi East 3.5 mph - N/A   Overcast
2:55 PM 83.8 °F 84.1 °F 60.8 °F 46% 30.23 in 10.0 mi Calm Calm - N/A   Mostly Cloudy
3:15 PM 83.8 °F 83.6 °F 59.0 °F 43% 30.22 in 10.0 mi Calm Calm - N/A   Mostly Cloudy
3:35 PM 84.2 °F 84.0 °F 59.4 °F 43% 30.22 in 10.0 mi Calm Calm - N/A   Scattered Clouds
3:55 PM 85.6 °F 85.7 °F 60.8 °F 43% 30.21 in 10.0 mi NNE 4.6 mph - N/A   Clear
4:15 PM 85.3 °F 84.8 °F 59.4 °F 41% 30.21 in 10.0 mi Calm Calm - N/A   Scattered Clouds
4:35 PM 83.8 °F 83.6 °F 58.8 °F 43% 30.20 in 10.0 mi Calm Calm - N/A   Scattered Clouds
4:55 PM 83.5 °F 84.1 °F 61.7 °F 48% 30.20 in 10.0 mi Calm Calm - N/A   Clear
5:15 PM 84.7 °F 85.2 °F 61.9 °F 46% 30.20 in 10.0 mi Calm Calm - N/A   Scattered Clouds
5:35 PM 85.1 °F 85.4 °F 61.5 °F 45% 30.20 in 10.0 mi Calm Calm - N/A   Scattered Clouds
5:55 PM 86.0 °F 86.1 °F 61.2 °F 43% 30.19 in 10.0 mi Calm Calm - N/A   Scattered Clouds
6:15 PM 85.3 °F 85.4 °F 61.3 °F 44% 30.19 in 10.0 mi Calm Calm - N/A   Scattered Clouds
6:55 PM 84.2 °F 85.0 °F 62.6 °F 48% 30.18 in 10.0 mi NW 3.5 mph - N/A   Clear
7:15 PM 83.7 °F 84.5 °F 62.6 °F 49% 30.18 in 10.0 mi Calm Calm - N/A   Clear
7:35 PM 82.8 °F 84.2 °F 63.9 °F 53% 30.18 in 10.0 mi Calm Calm - N/A   Clear
7:55 PM 79.9 °F - 68.5 °F 68% 30.18 in 10.0 mi Calm Calm - N/A   Clear
8:15 PM 77.2 °F - 68.4 °F 74% 30.19 in 10.0 mi Calm Calm - N/A   Clear
8:35 PM 73.8 °F - 68.0 °F 82% 30.20 in 5.0 mi Calm Calm - N/A   Haze
8:55 PM 73.0 °F - 67.6 °F 83% 30.21 in 7.0 mi Calm Calm - N/A   Scattered Clouds
9:15 PM 72.3 °F - 69.4 °F 91% 30.22 in 7.0 mi Calm Calm - N/A   Scattered Clouds
9:35 PM 71.4 °F - 70.5 °F 97% 30.23 in 7.0 mi Calm Calm - N/A   Mostly Cloudy
9:55 PM 69.4 °F - 68.9 °F 98% 30.23 in 5.0 mi Calm Calm - N/A   Scattered Clouds
10:15 PM 68.9 °F - 68.9 °F 100% 30.23 in 5.0 mi Calm Calm - N/A   Clear
10:40 PM 67.8 °F - 67.8 °F 100% 30.24 in 5.0 mi Calm Calm - N/A   Clear
10:55 PM 67.1 °F - 67.1 °F 100% 30.24 in 5.0 mi Calm Calm - N/A   Clear
11:15 PM 65.5 °F - 65.5 °F 100% 30.25 in 4.0 mi Calm Calm - N/A   Clear
11:35 PM 65.3 °F - 65.3 °F 100% 30.25 in 4.0 mi Calm Calm - N/A   Scattered Clouds
11:55 PM 64.6 °F - 64.6 °F 100% 30.25 in 4.0 mi Calm Calm - N/A   Clear